Home > Time Zones > World Clock > Weather > Spain > Palma > Past weeks

Flag for Spain Weather past 2 weeks in Palma, Majorca, Spain

Now
77 °F

Passing clouds.


Feels Like: 79 °F
Forecast: 73 / 91 °F
Wind: 1 mph from North

Location: Palma De Mallorca / Son San Juan

Current Time: Aug 5, 2015 at 9:07:33 AM

Latest Report: Aug 5, 2015 at 8:30 AM


Visibility: N/A

Pressure: 29.98 "Hg

Humidity: 79%

Dew point: 70 °F

Location of PalmaLocation

Historic Weather in Palma — Graph

°F

Palma temperature yesterday

Maximum temperature yesterday: 91 °F (at 12:00 PM)
Minimum temperature yesterday: 72 °F (at 7:00 AM)
Average temperature yesterday: 82 °F

Past Weeks' High & Low Weather Summary

 TemperatureHumidityPressure
High93 °F (Jul 21, 12:30 PM)94% (Jul 23, 6:00 AM)30.07 "Hg (Jul 23, 6:00 AM)
Low68 °F (Jul 31, 5:30 AM)34% (Jul 21, 1:00 PM)29.74 "Hg (Jul 31, 7:00 PM)
Average82 °F69%29.93 "Hg
* Reported Jul 21 7:00 AM — Aug 5 7:30 AM, Palma, Weather by CustomWeather, © 2015

Note: Actual official high and low records may vary slightly from our data, if they occured in-between our weather recording intervals... More about our weather records

Advertising

Palma weather history for previous 24 hours

 ConditionsComfort  
Time TempWeatherWind HumidityBarometerVisibility
7:30 AM
Wed, Aug 5
70 °FClear.No wind94%29.98 "Hg10 mi
7:00 AM68 °FClear.No wind94%29.98 "Hg10 mi
6:30 AM70 °FClear.1 mph88%29.95 "Hg10 mi
6:00 AM68 °FClear.3 mph94%29.98 "Hg10 mi
5:00 AM70 °FClear.No wind94%29.98 "Hg10 mi
4:30 AM70 °FClear.3 mph88%29.98 "Hg10 mi
4:00 AM72 °FClear.No wind88%29.98 "Hg10 mi
3:30 AM72 °FClear.No wind83%29.98 "Hg10 mi
3:00 AM72 °FClear.No wind88%29.98 "Hg10 mi
2:30 AM73 °FClear.No wind83%29.98 "Hg10 mi
2:00 AM75 °FClear.2 mph78%29.98 "Hg10 mi
1:30 AM73 °FClear.2 mph83%29.98 "Hg10 mi
1:00 AM73 °FClear.3 mph83%29.98 "Hg10 mi
12:30 AM75 °FClear.No wind78%29.98 "Hg10 mi
12:00 AM75 °FClear.No wind78%29.98 "Hg10 mi
11:30 PM
Tue, Aug 4
77 °FClear.No wind79%29.98 "Hg10 mi
11:00 PM77 °FClear.No wind79%29.98 "Hg10 mi
10:30 PM81 °FClear.No wind70%29.98 "Hg10 mi
10:00 PM81 °FClear.No wind70%29.98 "Hg10 mi
9:30 PM81 °FSunny.No wind70%29.98 "Hg10 mi
9:00 PM82 °FSunny.1 mph70%29.98 "Hg10 mi
8:30 PM84 °FPassing clouds.3 mph66%29.95 "HgN/A
8:00 PM84 °FPassing clouds.6 mph62%29.95 "HgN/A
7:30 PM84 °FPassing clouds.8 mph70%29.98 "HgN/A
7:00 PM84 °FPassing clouds.13 mph74%29.98 "HgN/A
6:30 PM86 °FPassing clouds.13 mph70%29.98 "HgN/A
6:00 PM86 °FPassing clouds.17 mph70%29.98 "HgN/A
5:30 PM86 °FPassing clouds.20 mph70%29.98 "HgN/A
5:00 PM88 °FPassing clouds.18 mph66%29.98 "HgN/A
4:30 PM90 °FPassing clouds.15 mph63%29.98 "HgN/A
4:00 PM90 °FPassing clouds.15 mph59%29.98 "HgN/A
3:30 PM90 °FPassing clouds.14 mph59%29.98 "HgN/A
3:00 PM91 °FPassing clouds.13 mph56%29.98 "HgN/A
2:30 PM90 °FSunny.15 mph63%29.98 "Hg10 mi
2:00 PM90 °FPassing clouds.12 mph55%29.98 "HgN/A
1:30 PM90 °FPassing clouds.8 mph49%29.98 "HgN/A
1:00 PM91 °FPassing clouds.8 mph46%30.01 "HgN/A
12:30 PM91 °FPassing clouds.3 mph46%29.98 "HgN/A
12:00 PM91 °FPassing clouds.5 mph44%30.01 "HgN/A
11:30 AM88 °FScattered clouds.3 mph52%29.98 "HgN/A
11:00 AM88 °FScattered clouds.8 mph52%30.01 "HgN/A
10:30 AM88 °FScattered clouds.5 mph55%30.01 "HgN/A
10:00 AM86 °FPassing clouds.6 mph59%29.98 "HgN/A
9:30 AM86 °FPassing clouds.8 mph59%29.98 "HgN/A
9:00 AM82 °FPassing clouds.7 mph66%29.98 "HgN/A
Weather by CustomWeather, © 2015

See weather overviewHow to use our weather pages